TimeCDT,TemperatureF,Dew PointF,Humidity,Sea Level PressureIn,VisibilityMPH,Wind Direction,Wind SpeedMPH,Gust SpeedMPH,PrecipitationIn,Events,Conditions,WindDirDegrees,DateUTC
12:58 AM,44.2,43.2,96,30.00,10.0,SSW,3.5,-,N/A,,Clear,210,2013-10-18 05:58:00
1:58 AM,45.0,43.3,94,30.00,10.0,Variable,3.5,-,N/A,,Clear,0,2013-10-18 06:58:00
2:58 AM,43.7,42.8,97,30.00,10.0,SW,3.5,-,N/A,,Clear,220,2013-10-18 07:58:00
3:58 AM,45.0,43.3,94,30.02,10.0,West,2.3,-,N/A,,Clear,260,2013-10-18 08:58:00
4:58 AM,44.6,43.5,96,30.03,10.0,WNW,6.9,-,N/A,,Clear,290,2013-10-18 09:58:00
5:58 AM,43.0,42.6,99,30.04,10.0,WNW,2.3,-,N/A,,Clear,300,2013-10-18 10:58:00
6:58 AM,41.9,41.7,99,30.07,10.0,WNW,4.6,-,N/A,,Clear,290,2013-10-18 11:58:00
7:58 AM,41.5,41.5,100,30.08,10.0,WNW,3.5,-,N/A,,Clear,290,2013-10-18 12:58:00
8:58 AM,45.0,43.5,95,30.10,10.0,NW,8.1,-,N/A,,Clear,320,2013-10-18 13:58:00
9:58 AM,47.7,43.2,84,30.11,10.0,NW,10.4,-,N/A,,Clear,320,2013-10-18 14:58:00
10:43 AM,50.0,42.8,76,30.09,10.0,NNW,10.4,-,N/A,,Mostly Cloudy,340,2013-10-18 15:43:00
10:48 AM,50.0,42.8,76,30.09,10.0,NW,6.9,-,N/A,,Scattered Clouds,320,2013-10-18 15:48:00
10:58 AM,50.5,43.3,76,30.10,10.0,NNW,9.2,-,N/A,,Mostly Cloudy,340,2013-10-18 15:58:00
11:08 AM,50.0,42.8,76,30.08,10.0,NNW,9.2,-,N/A,,Scattered Clouds,340,2013-10-18 16:08:00
11:58 AM,52.7,42.6,69,30.09,10.0,WNW,8.1,-,N/A,,Partly Cloudy,290,2013-10-18 16:58:00
12:58 PM,55.8,43.3,63,30.06,10.0,NNW,6.9,-,N/A,,Clear,330,2013-10-18 17:58:00
1:58 PM,55.9,41.7,59,30.04,10.0,North,6.9,-,N/A,,Partly Cloudy,350,2013-10-18 18:58:00
2:58 PM,56.1,42.8,61,30.01,4.0,North,4.6,-,N/A,,Haze,360,2013-10-18 19:58:00
3:58 PM,55.2,41.7,60,30.04,10.0,NW,8.1,-,N/A,,Overcast,310,2013-10-18 20:58:00
4:58 PM,53.4,41.2,63,30.04,8.0,NNW,6.9,-,N/A,,Overcast,330,2013-10-18 21:58:00
6:55 PM,48.7,39.9,72,30.02,10.0,NNW,10.4,-,N/A,,Light Drizzle,340,2013-10-18 23:55:00
9:58 PM,43.2,43.0,99,30.06,10.0,NNW,6.9,-,0.03,Rain,Light Rain,340,2013-10-19 02:58:00
10:08 PM,42.8,42.8,100,30.04,10.0,NNW,9.2,-,N/A,Rain,Light Rain,340,2013-10-19 03:08:00
10:18 PM,42.8,42.8,100,30.04,10.0,NW,6.9,-,N/A,Rain,Light Rain,320,2013-10-19 03:18:00
10:28 PM,42.8,42.8,100,30.04,10.0,NW,6.9,-,N/A,Rain,Light Rain,320,2013-10-19 03:28:00
10:33 PM,42.8,42.8,100,30.04,9.0,NW,5.8,-,N/A,Rain,Light Rain,310,2013-10-19 03:33:00
11:08 PM,41.0,41.0,100,30.04,10.0,WNW,5.8,-,N/A,Rain,Light Rain,300,2013-10-19 04:08:00